Regional Weather Roundup
Issued by NWS Cleveland, OH

Home | Current Version | Previous Version | Text Only | Print | Product List | Glossary On
Versions: 1 2 3 4 5 6 7 8 9 10 11 12 13 14 15 16 17 18 19 20 21 22 23 24 25 26 27 28 29 30 31 32 33 34 35 36 37 38 39 40 41 42 43 44 45 46 47 48 49 50
000
ASUS41 KCLE 271310
RWRCLE
OHIO REGIONAL WEATHER ROUNDUP
NATIONAL WEATHER SERVICE CLEVELAND, OH
900 AM EDT MON APR 27 2015

NOTE: "FAIR" INDICATES FEW OR NO CLOUDS BELOW 12,000 FEET WITH NO
SIGNIFICANT WEATHER AND/OR OBSTRUCTIONS TO VISIBILITY.

OHZ001>008-015>018-024>027-034-035-043-044-271400-
   NORTHWEST OHIO

CITY           SKY/WX    TMP DP  RH WIND       PRES   REMARKS
DEFIANCE       SUNNY     46  34  62 N13       29.97R
FINDLAY        PTSUNNY   48  35  60 N12       29.94R
TOLEDO EXPRESS CLOUDY    44  33  65 N12       29.95R
TOLEDO EXEC    CLOUDY    45  33  63 N12       29.96R
LIMA           CLOUDY    43  35  73 W3        29.95R
$$

OHZ009>014-019>023-028>033-038-089-271400-
   NORTHEAST OHIO

CITY           SKY/WX    TMP DP  RH WIND       PRES   REMARKS
CLE-HOPKINS    LGT RAIN  40  37  89 N13       29.94R FOG
CLE-LAKEFRONT  CLOUDY    40  36  86 N18       29.92R FOG
CUY CO. ARPT   LGT RAIN  41  39  93 NW17G23   29.91R FOG
LORAIN-ELYRIA  LGT RAIN  41  38  89 N12       29.93R
ASHTABULA      LGT RAIN  38  36  92 NW12      29.88R FOG
AKRON-CANTON   PTSUNNY   44  35  70 NW14      29.88S
WOOSTER        CLOUDY    43  36  76 N17       29.90R
MANSFIELD      MOSUNNY   44  34  67 NW12      29.90S
YOUNGSTOWN     CLOUDY    41  35  79 NW12      29.86R
$$

OHZ042-051>053-060>062-070>072-077>081-271400-
  SOUTHWEST OHIO

CITY           SKY/WX    TMP DP  RH WIND       PRES   REMARKS
CINC-COVINGTON SUNNY     48  38  68 NW3       29.98R
CINC-LUNKEN    SUNNY     44  43  96 S3        29.99S
HAMILTON       SUNNY     46  41  82 CALM      29.99R
DAYTON         MOSUNNY   48  33  56 S6        29.96R
WRIGHT-PAT AFB SUNNY     45  37  73 SW6       29.96R
DAYTON GENERAL SUNNY     46  36  68 S5        29.96R
WILMINGTON     SUNNY     48  34  58 CALM      29.96R
$$

OHZ036-037-039>041-045>050-054>059-063>069-073>076-082>088-271400-
  CENTRAL AND SOUTHEAST OHIO

CITY           SKY/WX    TMP DP  RH WIND       PRES   REMARKS
COLUMBUS       SUNNY     45  34  65 CALM      29.94R
OSU AIRPORT    SUNNY     45  33  63 NW6       29.94R
BOLTON FIELD   SUNNY     43  36  75 W5        29.95R
RICKENBACK AFB SUNNY     43  34  70 W3        29.95R
NEWARK         SUNNY     46  33  60 VRB3      29.91S
MARION         MOSUNNY   43  34  70 NW8       29.93R
LANCASTER      SUNNY     46  34  62 VRB3      29.94R
ZANESVILLE     SUNNY     45  33  63 VRB3      29.91S
NEW PHILLY     PTSUNNY   46  34  62 NW7       29.90S
$$



USA.gov is the U.S. government's official web portal to all federal, state and local government web resources and services.